This is the latest recevied weather packets stored in our database for station/object WA4OPQ-1. If no packets are shown the sender has not sent any weather packets the latest 10 day(s).
| Time | Temp. | Humidity | Pressure | Rain* | Wind** | Luminosity | Snow |
|---|---|---|---|---|---|---|---|
| 1787882433 | 22.78° C | 94% | 1012.7 hPa | 0 mm | 0 m/s | 0 W/m² | - |
| 1787881883 | 22.78° C | 94% | 1012.3 hPa | 0 mm | 0 m/s | 0 W/m² | - |
| 1787881338 | 22.78° C | 94% | 1012.5 hPa | 0 mm | 0 m/s | 0 W/m² | - |
| 1787880773 | 22.78° C | 93% | 1012.4 hPa | 0 mm | 0 m/s | 0 W/m² | - |
| 1787880243 | 22.78° C | 94% | 1012.2 hPa | 0 mm | 0 m/s | 0 W/m² | - |
| 1787879733 | 23.33° C | 94% | 1012.3 hPa | 0 mm | 0 m/s | 0 W/m² | - |
| 1787879243 | 22.78° C | 95% | 1012.1 hPa | 0 mm | 0 m/s | 0 W/m² | - |
| 1787878693 | 23.33° C | 97% | 1011.8 hPa | 0 mm | 0 m/s | 0 W/m² | - |
| 1787878166 | 23.33° C | 96% | 1011.7 hPa | 0 mm | 0 m/s | 0 W/m² | - |
| 1787877686 | 23.89° C | 94% | 1011.5 hPa | 0 mm | 0 m/s | 0 W/m² | - |
| 1787877163 | 23.89° C | 92% | 1011.8 hPa | 0 mm | 0 m/s | 0 W/m² | - |
| 1787876658 | 24.44° C | 91% | 1011.4 hPa | 0 mm | 0 m/s | 0 W/m² | - |
| 1787876168 | 24.44° C | 92% | 1011.3 hPa | 0 mm | 0 m/s | 0 W/m² | - |
| 1787875598 | 25° C | 92% | 1011.2 hPa | 0 mm | 0 m/s | 4 W/m² | - |
| 1787875112 | 25° C | 89% | 1011.2 hPa | 0 mm | 0 m/s | 7 W/m² | - |
| 1787874603 | 25.56° C | 88% | 1011.1 hPa | 0 mm | 0 m/s | 13 W/m² | - |
| 1787874006 | 25.56° C | 87% | 1011.4 hPa | 0 mm | 0 m/s | 20 W/m² | - |
| 1787873523 | 25.56° C | 87% | 1011.4 hPa | 0 mm | 0 m/s | 24 W/m² | - |
| 1787872953 | 26.11° C | 87% | 1011.2 hPa | 0 mm | 0 m/s | 28 W/m² | - |
| 1787872373 | 26.11° C | 86% | 1011.3 hPa | 0 mm | 0 m/s | 29 W/m² | - |
| 1787871843 | 26.67° C | 84% | 1011.1 hPa | 0 mm | 0 m/s | 34 W/m² | - |
| 1787871338 | 26.67° C | 83% | 1011.3 hPa | 0 mm | 0 m/s | 45 W/m² | - |
| 1787870778 | 27.22° C | 83% | 1011.1 hPa | 0 mm | 0 m/s | 46 W/m² | - |
| 1787870193 | 27.22° C | 82% | 1011 hPa | 0 mm | 0 m/s | 48 W/m² | - |
| 1787869672 | 26.67° C | 81% | 1011.4 hPa | 0 mm | 0 m/s | 49 W/m² | - |
* Rain latest hour (hover to see other rain measurements)
** Current wind speed in m/s (hover to see current wind gust speed)